Weather History for Piney Island, NC

Change the Weather History Date:

Friday, October 7, 2011

  Actual Average (KMRH) Record (KMRH)
Temperature  
Mean Temperature 68 °F -  
Max Temperature 73 °F 77 °F 87 °F (1990)
Min Temperature 64 °F 59 °F 44 °F (1980)
Cooling Degree Days 4    
Growing Degree Days 18 (Base 50)    
Moisture  
Dew Point 58 °F    
Average Humidity 70    
Maximum Humidity 79    
Minimum Humidity 57    
Precipitation  
Precipitation 0.00 in - - ()
Sea Level Pressure  
Sea Level Pressure 30.38 in    
Wind  
Wind Speed 12 mph (NE)    
Max Wind Speed 18 mph    
Max Gust Speed 24 mph    
Visibility 10 miles    
Events      
Averages and records for this station are not official NWS values.
T = Trace of Precipitation, MM = Missing Value Source: NWS Daily Summary

Daily Weather History Graph

Daily Weather History Graph

Search for Another Location

Airport:

Trip Planner

Search our weather history database for the weather conditions in past years. The results will help you decide how hot, cold, wet, or windy it might be!

Date:

Astronomy

Oct. 07, 2011 Rise Set
Actual Time 7:05 AM EDT 6:41 PM EDT
Civil Twilight 6:39 AM EDT 7:07 PM EDT
Nautical Twilight 6:10 AM EDT 7:36 PM EDT
Astronomical Twilight 5:41 AM EDT 8:05 PM EDT
Moon 4:16 PM EDT (10/7) 3:00 AM EDT (10/7)
Length of Visible Light 12h 27m
Length of Day
11h 36m
Waxing Gibbous, 83% of the Moon is Illuminated
Oct 7
Waxing Gibbous
Oct 11
Full
Oct 19
Last Quarter
Oct 26
New
Nov 2
First Quarter

Hourly Weather History & Observations

Time (EDT) Temp. Dew Point Humidity Pressure Visibility Wind Dir Wind Speed Gust Speed Precip Events Conditions
12:56 AM 64.9 °F 54.0 °F 68% 30.34 in 10.0 mi NE 11.5 mph - N/A   Clear
1:56 AM 64.9 °F 54.0 °F 68% 30.34 in 10.0 mi NE 10.4 mph - N/A   Clear
2:56 AM 64.9 °F 55.9 °F 73% 30.33 in 10.0 mi NNE 9.2 mph - N/A   Clear
3:56 AM 64.9 °F 57.9 °F 78% 30.32 in 10.0 mi NE 9.2 mph - N/A   Clear
4:56 AM 66.0 °F 59.0 °F 78% 30.33 in 10.0 mi NE 12.7 mph - N/A   Clear
5:56 AM 66.0 °F 59.0 °F 78% 30.34 in 10.0 mi NE 11.5 mph - N/A   Clear
6:56 AM 66.0 °F 59.0 °F 78% 30.35 in 10.0 mi NE 10.4 mph - N/A   Clear
7:56 AM 66.9 °F 60.1 °F 79% 30.36 in 10.0 mi NE 11.5 mph - N/A   Clear
8:56 AM 69.1 °F 61.0 °F 75% 30.38 in 10.0 mi NE 13.8 mph - N/A   Clear
9:56 AM 70.0 °F 61.0 °F 73% 30.40 in 10.0 mi NE 16.1 mph 20.7 mph N/A   Clear
10:56 AM 72.0 °F 59.0 °F 64% 30.41 in 10.0 mi ENE 15.0 mph - N/A   Clear
11:56 AM 72.0 °F 59.0 °F 64% 30.41 in 10.0 mi NE 16.1 mph 24.2 mph N/A   Clear
12:56 PM 72.0 °F 57.9 °F 61% 30.40 in 10.0 mi ENE 18.4 mph 23.0 mph N/A   Clear
1:56 PM 73.0 °F 57.9 °F 59% 30.39 in 10.0 mi ENE 13.8 mph 21.9 mph N/A   Clear
2:56 PM 73.9 °F 57.9 °F 57% 30.39 in 10.0 mi ENE 12.7 mph 21.9 mph N/A   Clear
3:56 PM 72.0 °F 57.9 °F 61% 30.39 in 10.0 mi ENE 15.0 mph - N/A   Clear
4:56 PM 71.1 °F 57.0 °F 61% 30.39 in 10.0 mi ENE 13.8 mph - N/A   Clear
5:56 PM 70.0 °F 57.9 °F 65% 30.39 in 10.0 mi ENE 11.5 mph - N/A   Clear
6:56 PM 68.0 °F 59.0 °F 73% 30.40 in 10.0 mi ENE 11.5 mph - N/A   Clear
7:56 PM 68.0 °F 59.0 °F 73% 30.42 in 10.0 mi ENE 12.7 mph - N/A   Clear
8:56 PM 66.9 °F 57.9 °F 73% 30.43 in 10.0 mi ENE 12.7 mph - N/A   Clear
9:56 PM 68.0 °F 57.9 °F 70% 30.44 in 10.0 mi NE 12.7 mph - N/A   Clear
10:56 PM 66.9 °F 57.9 °F 73% 30.44 in 10.0 mi NE 11.5 mph - N/A   Clear
11:56 PM 66.0 °F 57.9 °F 75% 30.44 in 10.0 mi ENE 9.2 mph - N/A   Clear